Powrót do katalogu

TIANMU-1 05

AktywnyPogodaSSO
NORAD 55975·PAYLOAD·🇨🇳 China

Wystrzelony Mar 22, 2023 z Jiuquan Satellite Launch Center

Loading…

Następne Przeloty (najbliższe 24 godziny)

TLE

ŚwieżeSource: Space-Track

Epoka: Sep 14, 2026, 22:12 UTC

1 55975U 23039C   26257.92531954  .00015648  00000-0  28548-3 0  9992
2 55975  97.5249  75.1809 0003518 131.4186 228.7368 15.49522793194704

Śledź TIANMU-1 05 w czasie rzeczywistym z AllMySat

Download on the App Store